| time (UTC) | temp C | wind direction | speed KPH | gust KPH | rain 1hr cm | rain 24hr cm | rain mn cm | humidity % | barometer mb |
| 20260906232628 | 18 | 329 | 0.0 | 0.0 | 0.00 | 1.45 | 1.45 | 73 | 1147.7 |
| 20260906232123 | 18 | 277 | 0.0 | 0.0 | 0.00 | 1.45 | 1.45 | 72 | 1147.7 |
| 20260906231618 | 18 | 356 | 0.0 | 0.0 | 0.00 | 1.45 | 1.45 | 73 | 1147.8 |
| 20260906231113 | 18 | 310 | 0.0 | 0.0 | 0.00 | 1.45 | 1.45 | 74 | 1148.3 |
| 20260906230612 | 18 | 307 | 0.0 | 0.0 | 0.00 | 1.45 | 1.45 | 74 | 1148.4 |
| 20260906230106 | 17 | 283 | 0.0 | 0.0 | 0.00 | 1.45 | 1.45 | 75 | 1148.4 |
| 20260906225600 | 17 | 312 | 0.0 | 0.0 | 0.00 | 1.45 | 1.45 | 74 | 1148.6 |
| 20260906225056 | 18 | 337 | 0.0 | 0.0 | 0.00 | 1.45 | 1.45 | 74 | 1148.5 |
| 20260906224552 | 18 | 317 | 0.0 | 0.0 | 0.00 | 1.45 | 1.45 | 74 | 1148.5 |
| 20260906224049 | 17 | 282 | 0.0 | 0.0 | 0.00 | 1.45 | 1.45 | 76 | 1148.5 |
| 20260906223544 | 17 | 309 | 0.0 | 0.0 | 0.00 | 1.45 | 1.45 | 77 | 1148.7 |
| 20260906223043 | 17 | 288 | 0.0 | 0.0 | 0.00 | 1.45 | 1.45 | 77 | 1148.6 |
| 20260906222543 | 17 | 283 | 0.0 | 0.0 | 0.00 | 1.45 | 1.45 | 78 | 1148.7 |
| 20260906222040 | 16 | 269 | 0.0 | 0.0 | 0.00 | 1.45 | 1.45 | 79 | 1148.6 |
| 20260906221539 | 17 | 308 | 0.0 | 0.0 | 0.00 | 1.45 | 1.45 | 78 | 1148.5 |
| 20260906221034 | 16 | 290 | 0.0 | 0.0 | 0.00 | 1.45 | 1.45 | 78 | 1148.8 |
| 20260906220529 | 16 | 253 | 0.0 | 0.0 | 0.00 | 1.45 | 1.45 | 78 | 1148.8 |
| 20260906220025 | 16 | 274 | 0.0 | 0.0 | 0.00 | 1.45 | 1.45 | 79 | 1148.9 |
| 20260906215523 | 16 | 283 | 0.0 | 0.0 | 0.00 | 1.45 | 1.45 | 78 | 1148.8 |
| 20260906215021 | 16 | 232 | 0.0 | 0.0 | 0.00 | 1.45 | 1.45 | 80 | 1148.9 |
| 20260906214520 | 16 | 225 | 0.0 | 0.0 | 0.00 | 1.45 | 1.45 | 81 | 1148.8 |
| 20260906214015 | 16 | 222 | 0.0 | 0.0 | 0.00 | 1.45 | 1.45 | 80 | 1148.6 |
| 20260906213514 | 16 | 234 | 0.0 | 0.0 | 0.00 | 1.45 | 1.45 | 81 | 1148.6 |
| 20260906213009 | 16 | 251 | 0.0 | 0.0 | 0.00 | 1.45 | 1.45 | 80 | 1148.7 |
| 20260906212502 | 16 | 276 | 0.0 | 0.0 | 0.00 | 1.45 | 1.45 | 78 | 1148.7 |
| 20260906211958 | 16 | 354 | 0.0 | 0.0 | 0.00 | 1.45 | 1.45 | 80 | 1148.8 |
| 20260906211452 | 16 | 326 | 0.0 | 0.0 | 0.00 | 1.45 | 1.45 | 80 | 1148.6 |
| 20260906210947 | 16 | 295 | 0.0 | 0.0 | 0.00 | 1.45 | 1.45 | 79 | 1148.7 |
| 20260906210442 | 16 | 232 | 0.0 | 0.0 | 0.00 | 1.45 | 1.45 | 80 | 1148.7 |
| 20260906205936 | 16 | 282 | 0.0 | 0.0 | 0.00 | 1.45 | 1.45 | 81 | 1148.6 |
| 20260906205433 | 16 | 291 | 0.0 | 0.0 | 0.00 | 1.45 | 1.45 | 79 | 1148.7 |
| 20260906204929 | 16 | 281 | 0.0 | 0.0 | 0.00 | 1.45 | 1.45 | 80 | 1148.8 |
| 20260906204428 | 16 | 255 | 0.0 | 0.0 | 0.00 | 1.45 | 1.45 | 80 | 1148.6 |
| 20260906203927 | 16 | 323 | 0.0 | 0.0 | 0.00 | 1.45 | 1.45 | 79 | 1148.7 |
| 20260906203422 | 16 | 242 | 0.0 | 0.0 | 0.00 | 1.45 | 1.45 | 80 | 1148.6 |
| 20260906202920 | 16 | 222 | 0.0 | 0.0 | 0.00 | 1.45 | 1.45 | 81 | 1148.7 |
| 20260906202419 | 16 | 219 | 0.0 | 0.0 | 0.00 | 1.45 | 1.45 | 79 | 1148.8 |
| 20260906201914 | 16 | 230 | 0.0 | 0.0 | 0.00 | 1.45 | 1.45 | 78 | 1148.8 |
| 20260906201408 | 16 | 209 | 0.0 | 0.0 | 0.00 | 1.45 | 1.45 | 78 | 1148.9 |
| 20260906200903 | 16 | 221 | 0.0 | 0.0 | 0.00 | 1.45 | 1.45 | 78 | 1148.9 |
| 20260906200359 | 16 | 225 | 0.0 | 0.0 | 0.00 | 1.45 | 1.45 | 78 | 1148.8 |
| 20260906195854 | 16 | 211 | 0.0 | 0.0 | 0.00 | 1.45 | 1.45 | 79 | 1148.8 |
| 20260906195351 | 16 | 201 | 0.0 | 0.0 | 0.00 | 1.45 | 1.45 | 79 | 1148.9 |
| 20260906194846 | 16 | 216 | 0.0 | 0.0 | 0.00 | 1.45 | 1.45 | 79 | 1148.8 |
| 20260906194342 | 16 | 234 | 0.0 | 0.0 | 0.00 | 1.45 | 1.45 | 77 | 1148.7 |
| 20260906193837 | 16 | 252 | 0.0 | 0.0 | 0.00 | 1.45 | 1.45 | 77 | 1148.7 |
| 20260906193332 | 16 | 283 | 0.0 | 0.0 | 0.00 | 1.45 | 1.45 | 78 | 1148.9 |
| 20260906192827 | 17 | 307 | 0.0 | 0.0 | 0.00 | 1.45 | 1.45 | 76 | 1148.9 |
| 20260906192321 | 16 | 255 | 0.0 | 0.0 | 0.00 | 1.45 | 1.45 | 77 | 1148.9 |
| 20260906191821 | 16 | 302 | 0.0 | 0.0 | 0.00 | 1.45 | 1.45 | 76 | 1148.9 |
| 20260906191315 | 17 | 327 | 0.0 | 0.0 | 0.00 | 1.45 | 1.45 | 76 | 1148.9 |
| 20260906190810 | 16 | 261 | 0.0 | 0.0 | 0.00 | 1.45 | 1.45 | 77 | 1148.9 |
| 20260906190309 | 17 | 255 | 0.0 | 0.0 | 0.00 | 1.45 | 1.45 | 77 | 1149.0 |
| 20260906185809 | 17 | 285 | 0.0 | 0.0 | 0.00 | 1.45 | 1.45 | 78 | 1148.9 |
| 20260906185308 | 16 | 310 | 0.0 | 0.0 | 0.00 | 1.45 | 1.45 | 77 | 1149.0 |
| 20260906184803 | 16 | 334 | 0.0 | 0.0 | 0.00 | 1.45 | 1.45 | 78 | 1149.1 |
| 20260906184258 | 17 | 352 | 0.0 | 0.0 | 0.00 | 1.45 | 1.45 | 77 | 1148.9 |
| 20260906183753 | 16 | 36 | 0.0 | 0.0 | 0.00 | 1.45 | 1.45 | 79 | 1148.9 |
| 20260906183249 | 17 | 43 | 0.0 | 0.0 | 0.00 | 1.45 | 1.45 | 78 | 1148.7 |
| 20260906182744 | 17 | 40 | 0.0 | 0.0 | 0.00 | 1.45 | 1.45 | 81 | 1148.8 |
| 20260906182240 | 16 | 49 | 0.0 | 0.0 | 0.00 | 1.45 | 1.45 | 82 | 1148.7 |
| 20260906181734 | 16 | 57 | 0.0 | 0.0 | 0.00 | 1.45 | 1.45 | 83 | 1148.9 |
| 20260906181226 | 16 | 39 | 0.0 | 0.0 | 0.00 | 1.45 | 1.45 | 83 | 1148.6 |
| 20260906180725 | 15 | 38 | 0.0 | 0.0 | 0.00 | 1.45 | 1.45 | 85 | 1149.0 |
| 20260906180220 | 14 | 25 | 0.0 | 0.0 | 0.00 | 1.45 | 1.45 | 87 | 1149.3 |
| 20260906175718 | 14 | 37 | 0.0 | 0.0 | 0.00 | 1.45 | 1.45 | 89 | 1149.5 |
| 20260906175214 | 13 | 27 | 0.0 | 0.0 | 0.00 | 1.45 | 1.45 | 89 | 1149.6 |
| 20260906174712 | 13 | 359 | 0.0 | 0.0 | 0.00 | 1.45 | 1.45 | 90 | 1149.7 |
| 20260906174207 | 13 | 32 | 0.0 | 0.0 | 0.00 | 1.45 | 1.45 | 92 | 1150.0 |
| 20260906173702 | 13 | 36 | 0.0 | 0.0 | 0.00 | 1.45 | 1.45 | 92 | 1150.1 |
| 20260906173157 | 13 | 37 | 0.0 | 0.0 | 0.00 | 1.45 | 1.45 | 94 | 1150.1 |
| 20260906172657 | 13 | 23 | 0.0 | 0.0 | 0.00 | 1.45 | 1.45 | 94 | 1150.1 |
| 20260906172153 | 13 | 23 | 0.0 | 0.0 | 0.00 | 1.45 | 1.45 | 94 | 1150.5 |
| 20260906171652 | 13 | 61 | 0.0 | 0.0 | 0.18 | 1.45 | 1.45 | 96 | 1150.2 |
| 20260906171148 | 12 | 42 | 0.0 | 0.0 | 0.18 | 1.45 | 1.45 | 96 | 1149.8 |
| 20260906170644 | 12 | 54 | 0.0 | 0.0 | 0.00 | 1.42 | 1.42 | 96 | 1149.8 |
| 20260906170143 | 12 | 34 | 0.0 | 0.0 | 0.13 | 1.42 | 1.42 | 97 | 1150.8 |
| 20260906165639 | 12 | 346 | 0.0 | 0.0 | 0.13 | 1.42 | 1.42 | 96 | 1150.9 |
| 20260906165135 | 12 | 346 | 0.0 | 0.0 | 0.00 | 1.40 | 1.40 | 96 | 1150.9 |
| 20260906164633 | 12 | 326 | 0.0 | 0.0 | 0.00 | 1.40 | 1.40 | 96 | 1151.3 |
| 20260906164129 | 12 | 331 | 0.0 | 0.0 | 0.00 | 1.40 | 1.40 | 95 | 1151.3 |
| 20260906163625 | 12 | 299 | 0.0 | 0.0 | 0.00 | 1.40 | 1.40 | 96 | 1151.3 |
| 20260906163121 | 12 | 315 | 0.0 | 0.0 | 0.00 | 1.40 | 1.40 | 96 | 1151.5 |
| 20260906162618 | 12 | 307 | 0.0 | 0.0 | 0.00 | 1.40 | 1.40 | 96 | 1151.0 |
| 20260906162112 | 12 | 330 | 0.0 | 0.0 | 0.00 | 1.40 | 1.40 | 97 | 1150.8 |
| 20260906161607 | 12 | 1 | 0.0 | 0.0 | 0.00 | 1.40 | 1.40 | 96 | 1150.9 |
| 20260906161106 | 12 | 36 | 0.0 | 0.0 | 0.00 | 1.40 | 1.40 | 96 | 1150.7 |
| 20260906160605 | 12 | 33 | 0.0 | 0.0 | 0.00 | 1.40 | 1.40 | 96 | 1150.6 |
| 20260906160104 | 12 | 35 | 0.0 | 0.0 | 0.00 | 1.40 | 1.40 | 96 | 1150.5 |
| 20260906155601 | 12 | 359 | 0.0 | 0.0 | 0.00 | 1.40 | 1.40 | 97 | 1150.8 |
| 20260906155058 | 12 | 13 | 0.0 | 0.0 | 0.00 | 1.40 | 1.40 | 97 | 1150.9 |
| 20260906154553 | 12 | 24 | 0.0 | 0.0 | 0.00 | 1.40 | 1.40 | 97 | 1151.1 |
| 20260906154051 | 12 | 346 | 0.0 | 0.0 | 0.00 | 1.40 | 1.40 | 98 | 1151.1 |
| 20260906153550 | 12 | 355 | 0.0 | 0.0 | 0.00 | 1.40 | 1.40 | 98 | 1151.1 |
| 20260906153045 | 11 | 356 | 0.0 | 0.0 | 0.00 | 1.40 | 1.40 | 98 | 1151.3 |
| 20260906152544 | 11 | 338 | 0.0 | 0.0 | 0.00 | 1.40 | 1.40 | 98 | 1151.2 |
| 20260906152039 | 11 | 324 | 0.0 | 0.0 | 0.00 | 1.40 | 1.40 | 98 | 1151.5 |
| 20260906151535 | 11 | 317 | 0.0 | 0.0 | 0.00 | 1.40 | 1.40 | 98 | 1151.2 |
| 20260906151030 | 11 | 356 | 0.0 | 0.0 | 0.00 | 1.40 | 1.40 | 99 | 1151.5 |
| 20260906150525 | 11 | 355 | 0.0 | 0.0 | 0.00 | 1.40 | 1.40 | 99 | 1151.6 |
| 20260906150020 | 11 | 352 | 0.0 | 0.0 | 0.00 | 1.40 | 1.40 | 99 | 1151.5 |
| 20260906145519 | 11 | 338 | 0.0 | 0.0 | 0.00 | 1.40 | 1.40 | 99 | 1151.9 |
| 20260906145015 | 11 | 299 | 0.0 | 0.0 | 0.00 | 1.40 | 1.40 | 99 | 1151.9 |
| 20260906144509 | 11 | 341 | 0.0 | 0.0 | 0.18 | 1.40 | 1.40 | 99 | 1152.0 |
| 20260906144004 | 11 | 312 | 0.0 | 0.0 | 0.61 | 1.40 | 1.40 | 99 | 1151.9 |
| 20260906143459 | 11 | 342 | 0.0 | 0.0 | 1.19 | 1.37 | 1.37 | 98 | 1151.9 |
| 20260906142955 | 11 | 323 | 0.0 | 0.0 | 1.55 | 1.30 | 1.30 | 98 | 1151.9 |
| 20260906142455 | 11 | 330 | 0.0 | 0.0 | 1.19 | 1.17 | 1.17 | 98 | 1152.2 |
| 20260906141949 | 11 | 289 | 0.0 | 0.0 | 1.19 | 1.04 | 1.04 | 98 | 1152.5 |
| 20260906141443 | 11 | 290 | 0.0 | 0.0 | 0.97 | 0.97 | 0.97 | 97 | 1152.1 |
| 20260906140938 | 12 | 310 | 0.0 | 0.0 | 0.48 | 0.84 | 0.84 | 97 | 1152.3 |
| 20260906140433 | 12 | 292 | 0.0 | 0.0 | 0.30 | 0.81 | 0.81 | 96 | 1152.1 |
| 20260906135931 | 12 | 279 | 0.0 | 0.0 | 0.00 | 0.76 | 0.76 | 95 | 1151.9 |
| 20260906135430 | 12 | 302 | 0.0 | 0.0 | 0.00 | 0.76 | 0.76 | 95 | 1151.6 |
| 20260906134926 | 12 | 281 | 0.0 | 0.0 | 0.00 | 0.76 | 0.76 | 95 | 1151.2 |
| 20260906134421 | 12 | 245 | 0.0 | 0.0 | 0.00 | 0.76 | 0.76 | 95 | 1151.3 |
| 20260906133916 | 12 | 223 | 0.0 | 0.0 | 0.00 | 0.76 | 0.76 | 94 | 1151.0 |
| 20260906133412 | 13 | 236 | 0.0 | 0.0 | 0.00 | 0.76 | 0.76 | 93 | 1151.0 |
| 20260906132907 | 12 | 266 | 0.0 | 0.0 | 0.00 | 0.76 | 0.76 | 94 | 1151.1 |
| 20260906132402 | 13 | 257 | 0.0 | 0.0 | 0.00 | 0.76 | 0.76 | 94 | 1151.0 |
| 20260906131858 | 13 | 31 | 0.0 | 0.0 | 0.00 | 0.76 | 0.76 | 93 | 1150.8 |
| 20260906131353 | 12 | 116 | 0.0 | 0.0 | 0.00 | 0.76 | 0.76 | 93 | 1150.8 |
| 20260906130849 | 12 | 149 | 0.0 | 0.0 | 0.00 | 0.76 | 0.76 | 93 | 1150.8 |
| 20260906130348 | 12 | 153 | 0.0 | 0.0 | 0.00 | 0.76 | 0.76 | 93 | 1150.9 |
| 20260906125847 | 12 | 277 | 0.0 | 0.0 | 0.00 | 0.76 | 0.76 | 92 | 1150.9 |
| 20260906125344 | 12 | 310 | 0.0 | 0.0 | 0.00 | 0.76 | 0.76 | 92 | 1150.8 |
| 20260906124839 | 12 | 312 | 0.0 | 0.0 | 0.00 | 0.76 | 0.76 | 92 | 1150.7 |
| 20260906124336 | 13 | 320 | 0.0 | 0.0 | 0.00 | 0.76 | 0.76 | 91 | 1151.1 |
| 20260906123835 | 13 | 340 | 0.0 | 0.0 | 0.00 | 0.76 | 0.76 | 90 | 1151.2 |
| 20260906123330 | 12 | 343 | 0.0 | 0.0 | 0.00 | 0.76 | 0.76 | 91 | 1151.5 |
| 20260906122829 | 12 | 329 | 0.0 | 0.0 | 0.00 | 0.76 | 0.76 | 92 | 1151.3 |
| 20260906122324 | 12 | 356 | 0.0 | 0.0 | 0.00 | 0.76 | 0.76 | 91 | 1151.7 |
| 20260906121821 | 12 | 309 | 0.0 | 0.0 | 0.00 | 0.76 | 0.76 | 91 | 1151.7 |
| 20260906121317 | 13 | 315 | 0.0 | 0.0 | 0.00 | 0.76 | 0.76 | 91 | 1151.2 |
| 20260906120813 | 12 | 334 | 0.0 | 0.0 | 0.00 | 0.76 | 0.76 | 92 | 1151.3 |
| 20260906120309 | 12 | 334 | 0.0 | 0.0 | 0.00 | 0.76 | 0.76 | 93 | 1151.5 |
| 20260906115805 | 12 | 320 | 0.0 | 0.0 | 0.00 | 0.76 | 0.76 | 94 | 1151.7 |
| 20260906115300 | 12 | 310 | 0.0 | 0.0 | 0.00 | 0.76 | 0.76 | 95 | 1151.8 |
| 20260906114759 | 12 | 305 | 0.0 | 0.0 | 0.00 | 0.76 | 0.76 | 94 | 1151.7 |
| 20260906114254 | 13 | 250 | 0.0 | 0.0 | 0.00 | 0.76 | 0.76 | 88 | 1151.7 |
| 20260906113749 | 13 | 78 | 0.0 | 0.0 | 0.00 | 0.76 | 0.76 | 84 | 1151.2 |
| 20260906113249 | 12 | 66 | 0.0 | 0.0 | 0.00 | 0.76 | 0.76 | 89 | 1150.9 |
| 20260906112748 | 12 | 91 | 0.0 | 0.0 | 0.00 | 0.76 | 0.76 | 90 | 1150.9 |
| 20260906112245 | 12 | 65 | 0.0 | 0.0 | 0.00 | 0.76 | 0.76 | 91 | 1151.0 |
| 20260906111739 | 11 | 74 | 0.0 | 0.0 | 0.00 | 0.76 | 0.76 | 94 | 1151.1 |
| 20260906111233 | 12 | 107 | 0.0 | 0.0 | 0.00 | 0.76 | 0.76 | 92 | 1151.3 |
| 20260906110728 | 12 | 82 | 0.0 | 0.0 | 0.00 | 0.76 | 0.76 | 90 | 1151.0 |
| 20260906110224 | 12 | 84 | 0.0 | 0.0 | 0.00 | 0.76 | 0.76 | 89 | 1150.9 |
| 20260906105723 | 12 | 57 | 0.0 | 0.0 | 0.00 | 0.76 | 0.76 | 89 | 1151.0 |
| 20260906105219 | 13 | 53 | 0.0 | 0.0 | 0.00 | 0.76 | 0.76 | 90 | 1150.9 |
| 20260906104719 | 13 | 39 | 0.0 | 0.0 | 0.00 | 0.76 | 0.76 | 90 | 1150.8 |
| 20260906104218 | 13 | 24 | 0.0 | 0.0 | 0.00 | 0.76 | 0.76 | 89 | 1150.9 |
| 20260906103716 | 13 | 20 | 0.0 | 0.0 | 0.00 | 0.76 | 0.76 | 88 | 1150.9 |
| 20260906103211 | 13 | 27 | 0.0 | 0.0 | 0.00 | 0.76 | 0.76 | 90 | 1151.5 |
| 20260906102706 | 13 | 14 | 0.0 | 0.0 | 0.00 | 0.76 | 0.76 | 90 | 1151.5 |
| 20260906102205 | 12 | 9 | 0.0 | 0.0 | 0.00 | 0.76 | 0.76 | 93 | 1151.1 |
| 20260906101700 | 12 | 355 | 0.0 | 0.0 | 0.00 | 0.76 | 0.76 | 94 | 1151.3 |
| 20260906101155 | 12 | 22 | 0.0 | 0.0 | 0.00 | 0.76 | 0.76 | 94 | 1151.3 |
| 20260906100651 | 12 | 40 | 0.0 | 0.0 | 0.00 | 0.76 | 0.76 | 95 | 1151.5 |
| 20260906100151 | 12 | 3 | 0.0 | 0.0 | 0.00 | 0.76 | 0.76 | 95 | 1151.3 |
| 20260906095646 | 12 | 340 | 0.0 | 0.0 | 0.00 | 0.76 | 0.76 | 95 | 1151.3 |
| 20260906095141 | 12 | 7 | 0.0 | 0.0 | 0.00 | 0.76 | 0.76 | 95 | 1151.5 |
| 20260906094640 | 12 | 345 | 0.0 | 0.0 | 0.00 | 0.76 | 0.76 | 95 | 1151.5 |
| 20260906094136 | 12 | 27 | 0.0 | 0.0 | 0.00 | 0.76 | 0.76 | 94 | 1151.2 |
| 20260906093632 | 12 | 28 | 0.0 | 0.0 | 0.00 | 0.76 | 0.76 | 94 | 1151.2 |
| 20260906093132 | 12 | 13 | 0.0 | 0.0 | 0.00 | 0.76 | 0.76 | 95 | 1151.6 |
| 20260906092627 | 12 | 347 | 0.0 | 0.0 | 0.00 | 0.76 | 0.76 | 96 | 1151.7 |
| 20260906092122 | 12 | 42 | 0.0 | 0.0 | 0.00 | 0.76 | 0.76 | 97 | 1151.5 |
| 20260906091618 | 12 | 17 | 0.0 | 0.0 | 0.00 | 0.76 | 0.76 | 97 | 1151.7 |
| 20260906091114 | 12 | 20 | 0.0 | 0.0 | 0.00 | 0.76 | 0.76 | 97 | 1151.8 |
| 20260906090609 | 12 | 36 | 0.0 | 0.0 | 0.00 | 0.76 | 0.76 | 97 | 1152.1 |
| 20260906090109 | 12 | 27 | 0.0 | 0.0 | 0.00 | 0.76 | 0.76 | 97 | 1152.1 |
| 20260906085608 | 12 | 0 | 0.0 | 0.0 | 0.61 | 0.76 | 0.76 | 97 | 1152.5 |
| 20260906085102 | 12 | 1 | 0.0 | 0.0 | 1.50 | 0.76 | 0.76 | 97 | 1152.9 |
| 20260906084557 | 12 | 300 | 0.0 | 0.0 | 1.07 | 0.66 | 0.66 | 96 | 1153.1 |
| 20260906084055 | 12 | 299 | 0.0 | 0.0 | 0.30 | 0.51 | 0.51 | 95 | 1153.2 |
| 20260906083552 | 12 | 349 | 0.0 | 0.0 | 0.71 | 0.48 | 0.48 | 94 | 1153.2 |
| 20260906083051 | 13 | 5 | 0.0 | 0.0 | 0.89 | 0.46 | 0.46 | 92 | 1152.7 |
| 20260906082547 | 13 | 19 | 0.0 | 0.0 | 0.97 | 0.36 | 0.36 | 92 | 1153.0 |
| 20260906082042 | 12 | 331 | 0.0 | 0.0 | 0.97 | 0.30 | 0.30 | 93 | 1153.4 |
| 20260906081538 | 12 | 291 | 0.0 | 0.0 | 0.18 | 0.18 | 0.18 | 94 | 1153.6 |
| 20260906081033 | 12 | 243 | 0.0 | 0.0 | 0.00 | 0.15 | 0.15 | 94 | 1153.1 |
| 20260906080530 | 12 | 315 | 0.0 | 0.0 | 0.00 | 0.15 | 0.15 | 94 | 1152.5 |
| 20260906080025 | 12 | 25 | 0.0 | 0.0 | 0.00 | 0.15 | 0.15 | 94 | 1151.5 |
| 20260906075519 | 12 | 349 | 0.0 | 0.0 | 0.00 | 0.15 | 0.15 | 94 | 1151.1 |
| 20260906075014 | 12 | 13 | 0.0 | 0.0 | 0.00 | 0.15 | 0.15 | 93 | 1151.3 |
| 20260906074509 | 12 | 351 | 0.0 | 0.0 | 0.00 | 0.15 | 0.15 | 94 | 1151.3 |
| 20260906074007 | 12 | 350 | 0.0 | 0.0 | 0.00 | 0.15 | 0.15 | 95 | 1152.2 |
| 20260906073502 | 12 | 308 | 0.0 | 0.0 | 0.00 | 0.15 | 0.15 | 95 | 1152.5 |
| 20260906072958 | 12 | 0 | 0.0 | 0.0 | 0.00 | 0.15 | 0.15 | 94 | 1152.6 |
| 20260906072453 | 12 | 22 | 0.0 | 0.0 | 0.00 | 0.15 | 0.15 | 94 | 1152.2 |
| 20260906071949 | 12 | 348 | 0.0 | 0.0 | 0.00 | 0.15 | 0.15 | 93 | 1151.9 |
| 20260906071446 | 12 | 12 | 0.0 | 0.0 | 0.00 | 0.15 | 0.15 | 93 | 1152.0 |
| 20260906070941 | 12 | 18 | 0.0 | 0.0 | 0.00 | 0.15 | 0.15 | 93 | 1151.8 |
| 20260906070437 | 12 | 16 | 0.0 | 0.0 | 0.00 | 0.15 | 0.15 | 92 | 1152.0 |
| 20260906065932 | 13 | 9 | 0.0 | 0.0 | 0.00 | 0.15 | 0.15 | 91 | 1152.0 |
| 20260906065426 | 12 | 356 | 0.0 | 0.0 | 0.00 | 0.15 | 0.15 | 90 | 1152.5 |
| 20260906064922 | 12 | 5 | 0.0 | 0.0 | 0.00 | 0.15 | 0.15 | 92 | 1152.3 |
| 20260906064419 | 12 | 342 | 0.0 | 0.0 | 0.00 | 0.15 | 0.15 | 91 | 1152.9 |
| 20260906063918 | 12 | 14 | 0.0 | 0.0 | 0.00 | 0.15 | 0.15 | 92 | 1152.5 |
| 20260906063414 | 12 | 359 | 0.0 | 0.0 | 0.00 | 0.15 | 0.15 | 93 | 1152.7 |
| 20260906062909 | 12 | 345 | 0.0 | 0.0 | 0.00 | 0.15 | 0.15 | 92 | 1152.7 |
| 20260906062409 | 12 | 353 | 0.0 | 0.0 | 0.13 | 0.15 | 0.15 | 93 | 1153.1 |
| 20260906061904 | 12 | 314 | 0.0 | 0.0 | 0.43 | 0.15 | 0.15 | 93 | 1153.2 |
| 20260906061400 | 12 | 3 | 0.0 | 0.0 | 0.79 | 0.13 | 0.13 | 93 | 1153.3 |
| 20260906060854 | 12 | 322 | 0.0 | 0.0 | 0.48 | 0.08 | 0.08 | 94 | 1153.7 |
| 20260906060352 | 12 | 332 | 0.0 | 0.0 | 0.00 | 0.00 | 0.00 | 93 | 1154.1 |
| 20260906055848 | 12 | 352 | 0.0 | 0.0 | 0.00 | 0.51 | 0.51 | 93 | 1153.7 |
| 20260906055343 | 12 | 348 | 0.0 | 0.0 | 0.00 | 0.51 | 0.51 | 92 | 1153.2 |
| 20260906054838 | 12 | 354 | 0.0 | 0.0 | 0.00 | 0.51 | 0.51 | 91 | 1153.0 |
| 20260906054333 | 12 | 334 | 0.0 | 0.0 | 0.00 | 0.51 | 0.51 | 92 | 1152.7 |
| 20260906053830 | 12 | 338 | 0.0 | 0.0 | 0.00 | 0.51 | 0.51 | 92 | 1152.6 |
| 20260906053325 | 12 | 15 | 0.0 | 0.0 | 0.00 | 0.51 | 0.51 | 92 | 1152.7 |
| 20260906052820 | 12 | 19 | 0.0 | 0.0 | 0.00 | 0.51 | 0.51 | 91 | 1152.8 |
| 20260906052317 | 12 | 21 | 0.0 | 0.0 | 0.00 | 0.51 | 0.51 | 92 | 1152.8 |
| 20260906051814 | 12 | 353 | 0.0 | 0.0 | 0.00 | 0.51 | 0.51 | 93 | 1153.0 |
| 20260906051313 | 12 | 4 | 0.0 | 0.0 | 0.00 | 0.51 | 0.51 | 94 | 1153.0 |
| 20260906050808 | 12 | 349 | 0.0 | 0.0 | 0.00 | 0.51 | 0.51 | 94 | 1153.1 |
| 20260906050304 | 12 | 8 | 0.0 | 0.0 | 0.00 | 0.51 | 0.51 | 93 | 1152.9 |
| 20260906045802 | 12 | 0 | 0.0 | 0.0 | 0.13 | 0.51 | 0.51 | 92 | 1152.9 |
| 20260906045257 | 12 | 350 | 0.0 | 0.0 | 0.13 | 0.51 | 0.51 | 92 | 1152.8 |
| 20260906044753 | 12 | 5 | 0.0 | 0.0 | 0.00 | 0.48 | 0.48 | 91 | 1153.1 |
| 20260906044248 | 13 | 346 | 0.0 | 0.0 | 0.00 | 0.48 | 0.48 | 89 | 1153.8 |
| 20260906043744 | 12 | 326 | 0.0 | 0.0 | 0.00 | 0.48 | 0.48 | 89 | 1153.2 |
| 20260906043240 | 12 | 0 | 0.0 | 0.0 | 0.00 | 0.48 | 0.48 | 89 | 1152.5 |
| 20260906042739 | 12 | 1 | 0.0 | 0.0 | 0.00 | 0.48 | 0.48 | 90 | 1152.3 |
| 20260906042238 | 12 | 350 | 0.0 | 0.0 | 0.00 | 0.48 | 0.48 | 91 | 1151.7 |
| 20260906041734 | 12 | 25 | 0.0 | 0.0 | 0.00 | 0.48 | 0.48 | 91 | 1151.8 |
| 20260906041229 | 12 | 22 | 0.0 | 0.0 | 0.00 | 0.48 | 0.48 | 91 | 1152.0 |
| 20260906040725 | 12 | 3 | 0.0 | 0.0 | 0.00 | 0.48 | 0.48 | 91 | 1152.0 |
| 20260906040220 | 12 | 12 | 0.0 | 0.0 | 0.00 | 0.48 | 0.48 | 90 | 1152.0 |
| 20260906035715 | 12 | 9 | 0.0 | 0.0 | 0.00 | 0.48 | 0.48 | 91 | 1152.3 |
| 20260906035211 | 12 | 21 | 0.0 | 0.0 | 0.18 | 0.48 | 0.48 | 91 | 1152.8 |
| 20260906034710 | 12 | 33 | 0.0 | 0.0 | 0.36 | 0.48 | 0.48 | 91 | 1152.8 |
| 20260906034205 | 12 | 2 | 0.0 | 0.0 | 0.61 | 0.46 | 0.46 | 92 | 1152.9 |
| 20260906033701 | 12 | 10 | 0.0 | 0.0 | 0.71 | 0.43 | 0.43 | 91 | 1152.1 |
| 20260906033200 | 13 | 352 | 0.0 | 0.0 | 0.48 | 0.36 | 0.36 | 89 | 1153.8 |
| 20260906032658 | 13 | 2 | 0.0 | 0.0 | 0.48 | 0.30 | 0.30 | 87 | 1154.2 |
| 20260906032152 | 13 | 333 | 0.0 | 0.0 | 0.30 | 0.28 | 0.28 | 85 | 1153.9 |
| 20260906031648 | 14 | 356 | 0.0 | 0.0 | 0.00 | 0.23 | 0.23 | 82 | 1153.6 |
| 20260906031143 | 15 | 349 | 0.0 | 0.0 | 0.00 | 0.23 | 0.23 | 76 | 1152.6 |
| 20260906030642 | 15 | 11 | 0.0 | 0.0 | 0.00 | 0.23 | 0.23 | 72 | 1152.2 |
| 20260906030138 | 15 | 358 | 0.0 | 0.0 | 0.00 | 0.23 | 0.23 | 72 | 1151.8 |
| 20260906025637 | 15 | 8 | 0.0 | 0.0 | 0.00 | 0.23 | 0.23 | 72 | 1151.5 |
| 20260906025136 | 15 | 18 | 0.0 | 0.0 | 0.00 | 0.23 | 0.23 | 72 | 1151.6 |
| 20260906024630 | 15 | 14 | 0.0 | 0.0 | 0.00 | 0.23 | 0.23 | 71 | 1151.3 |
| 20260906024125 | 15 | 1 | 0.0 | 0.0 | 0.00 | 0.23 | 0.23 | 71 | 1150.8 |
| 20260906023621 | 15 | 26 | 0.0 | 0.0 | 0.00 | 0.23 | 0.23 | 71 | 1150.7 |
| 20260906023121 | 15 | 0 | 0.0 | 0.0 | 0.00 | 0.23 | 0.23 | 71 | 1150.7 |
| 20260906022616 | 15 | 354 | 0.0 | 0.0 | 0.00 | 0.23 | 0.23 | 71 | 1150.6 |
| 20260906022112 | 15 | 355 | 0.0 | 0.0 | 0.00 | 0.23 | 0.23 | 71 | 1150.8 |
| 20260906021607 | 15 | 28 | 0.0 | 0.0 | 0.00 | 0.23 | 0.23 | 70 | 1150.6 |
| 20260906021106 | 16 | 32 | 0.0 | 0.0 | 0.00 | 0.23 | 0.23 | 70 | 1150.7 |
| 20260906020606 | 16 | 32 | 0.0 | 0.0 | 0.00 | 0.23 | 0.23 | 70 | 1150.8 |
| 20260906020101 | 16 | 356 | 0.0 | 0.0 | 0.00 | 0.23 | 0.23 | 70 | 1150.8 |
| 20260906015559 | 16 | 39 | 0.0 | 0.0 | 0.00 | 0.23 | 0.23 | 69 | 1150.7 |
| 20260906015054 | 16 | 16 | 0.0 | 0.0 | 0.00 | 0.23 | 0.23 | 70 | 1150.8 |
| 20260906014548 | 16 | 351 | 0.0 | 0.0 | 0.00 | 0.23 | 0.23 | 69 | 1150.8 |
| 20260906014045 | 16 | 349 | 0.0 | 0.0 | 0.00 | 0.23 | 0.23 | 69 | 1150.9 |
| 20260906013539 | 16 | 332 | 0.0 | 0.0 | 0.00 | 0.23 | 0.23 | 69 | 1150.9 |
| 20260906013035 | 16 | 12 | 0.0 | 0.0 | 0.00 | 0.23 | 0.23 | 68 | 1151.1 |
| 20260906012530 | 16 | 338 | 0.0 | 0.0 | 0.00 | 0.23 | 0.23 | 68 | 1150.9 |
| 20260906012029 | 17 | 340 | 0.0 | 0.0 | 0.00 | 0.23 | 0.23 | 68 | 1150.8 |
| 20260906011525 | 17 | 26 | 0.0 | 0.0 | 0.00 | 0.23 | 0.23 | 68 | 1150.8 |
| 20260906011025 | 17 | 357 | 0.0 | 0.0 | 0.00 | 0.23 | 0.23 | 67 | 1150.7 |
| 20260906010520 | 17 | 0 | 0.0 | 0.0 | 0.00 | 0.23 | 0.23 | 67 | 1150.9 |
| 20260906010016 | 17 | 359 | 0.0 | 0.0 | 0.00 | 0.23 | 0.23 | 67 | 1150.9 |
| 20260906005515 | 17 | 3 | 0.0 | 0.0 | 0.00 | 0.23 | 0.23 | 67 | 1150.8 |
| 20260906005014 | 17 | 24 | 0.0 | 0.0 | 0.00 | 0.23 | 0.23 | 66 | 1150.9 |
| 20260906004509 | 17 | 357 | 0.0 | 0.0 | 0.00 | 0.23 | 0.23 | 66 | 1150.9 |
| 20260906004004 | 17 | 3 | 0.0 | 0.0 | 0.00 | 0.23 | 0.23 | 65 | 1150.9 |
| 20260906003459 | 18 | 9 | 0.0 | 0.0 | 0.00 | 0.23 | 0.23 | 64 | 1151.0 |
| 20260906002954 | 18 | 18 | 0.0 | 0.0 | 0.00 | 0.23 | 0.23 | 64 | 1151.1 |
| 20260906002449 | 18 | 12 | 0.0 | 0.0 | 0.00 | 0.23 | 0.23 | 63 | 1151.1 |
| 20260906001944 | 18 | 344 | 0.0 | 0.0 | 0.00 | 0.23 | 0.23 | 61 | 1151.3 |
| 20260906001440 | 18 | 29 | 0.0 | 0.0 | 0.00 | 0.23 | 0.23 | 61 | 1151.2 |
| 20260906000934 | 18 | 355 | 0.0 | 0.0 | 0.00 | 0.23 | 0.23 | 61 | 1151.1 |
| 20260906000429 | 18 | 4 | 0.0 | 0.0 | 0.00 | 0.23 | 0.23 | 61 | 1151.2 |
| 20260905235919 | 19 | 0 | 0.0 | 0.0 | 0.00 | 0.23 | 0.23 | 58 | 1151.1 |
| 20260905235419 | 19 | 5 | 0.0 | 0.0 | 0.00 | 0.23 | 0.23 | 57 | 1151.5 |
| 20260905234914 | 19 | 346 | 0.0 | 0.0 | 0.00 | 0.23 | 0.23 | 58 | 1151.5 |
| 20260905234409 | 20 | 2 | 0.0 | 0.0 | 0.00 | 0.23 | 0.23 | 57 | 1151.3 |
| 20260905233904 | 20 | 315 | 0.0 | 0.0 | 0.00 | 0.23 | 0.23 | 57 | 1151.7 |
| 20260905233359 | 20 | 327 | 0.0 | 0.0 | 0.00 | 0.23 | 0.23 | 58 | 1151.6 |
| 20260905232858 | 20 | 327 | 0.0 | 0.0 | 0.00 | 0.23 | 0.23 | 58 | 1151.6 |